Wind_Speed
32 26 23 22 22 25 24 19 26 25 19 18 15 15 13 12 9 11 11 11 12 13 13 13 14 14 14 14 14 14 13 14 12 11 9 11 10 9 11 19 24 18 9 11 17 13 13 14 14 12 10 12 15 18
25 26 26 24 27 24 24 29 23 21 21 17 15 15 11 9 11 11 10 10 11 11 10 9 9 13 15 14 16 15 16 12 9 9 11 9 11 8 11 9 12 9 13 13 12 10 12 7 5 9 10 14 17 20
24 26 22 22 24 25 24 21 19 17 17 16 11 9 11 13 10 10 10 10 10 9 10 9 10 11 12 13 13 14 13 16 19 20 20 20 21 17 17 16 22 24 20 26 28 34 37 27 27 21 19 20 23 26
32 25 17 19 19 18 18 18 16 12 11 10 12 13 11 10 9 10 10 10 7 6 6 7 5 5 7 10 12 9 9 12 16 18 20 21 24 18 25 26 27 27 29 34 42 46 44 43 42 39 35 32 34 32
28 25 24 24 22 23 23 18 17 15 12 12 12 11 10 10 9 9 8 6 4 4 4 4 6 6 6 7 14 14 14 15 15 18 20 23 25 25 30 31 35 29 31 35 40 34 35 39 42 49 50 49 47 44
33 32 33 34 32 23 18 16 14 14 12 11 11 10 9 8 6 5 4 1 2 3 2 2 4 4 5 5 6 10 13 15 18 20 21 24 25 24 25 35 35 27 26 29 34 29 33 37 38 41 46 49 54 50
32 31 27 28 26 19 15 12 14 11 10 9 7 6 5 5 4 3 3 2 3 2 3 2 4 6 4 8 11 12 15 16 18 22 29 30 30 26 34 43 20 28 18 21 26 29 35 34 40 38 41 45 48 52
25 25 23 19 16 12 13 14 11 9 8 7 7 6 6 5 4 5 3 2 1 2 1 4 2 4 5 11 13 12 13 13 17 21 25 27 27 26 25 24 20 17 31 31 29 32 39 42 44 44 42 42 39 41
23 19 15 15 16 16 14 12 10 9 8 8 8 8 6 5 6 3 2 2 3 3 2 1 3 2 7 11 16 18 18 19 18 20 18 15 17 15 14 16 19 30 35 39 43 43 39 38 40 39 39 40 41 38
15 14 14 14 14 13 12 11 11 11 11 11 10 8 6 4 3 2 3 6 8 5 2 0 1 3 10 14 17 19 10 8 11 11 10 11 19 11 12 27 40 41 42 42 42 41 38 37 35 34 33 34 36 36
14 15 15 15 14 12 12 12 12 13 13 11 9 6 3 3 3 3 4 2 0 2 2 2 3 9 12 16 18 9 8 6 6 4 5 6 7 3 24 34 39 47 47 42 38 37 37 37 37 32 28 28 30 33
15 14 15 15 12 12 12 11 11 10 10 9 6 5 4 3 3 2 2 2 3 3 3 2 8 12 16 17 14 6 7 5 5 7 6 5 8 15 30 38 44 47 41 37 33 31 29 26 26 27 22 21 23 25
19 17 15 12 11 13 12 10 10 10 8 6 5 4 3 4 3 2 3 3 3 4 4 7 9 15 18 15 10 6 5 7 8 6 5 7 12 29 41 48 45 38 35 31 25 18 17 20 21 14 11 14 16 19
16 13 11 9 10 10 12 12 11 9 8 5 4 3 2 2 2 3 4 3 4 5 9 12 13 16 18 15 6 6 6 7 5 5 6 13 35 41 45 43 40 37 32 26 17 12 12 13 8 4 2 7 10 12
13 13 12 11 10 10 11 10 9 8 7 5 2 2 3 3 2 4 5 5 7 11 12 15 18 19 20 8 6 6 5 6 6 6 19 33 41 48 45 40 37 34 29 21 13 7 8 10 9 6 3 5 10 13
12 10 9 8 9 10 10 10 9 8 6 3 2 3 2 2 6 7 9 11 14 13 15 18 17 10 10 5 6 7 5 6 9 23 33 41 46 43 39 36 33 30 25 18 10 6 4 8 8 9 9 9 12 13
8 8 8 9 12 11 8 7 6 5 3 2 3 3 6 8 10 11 14 16 15 16 16 14 7 5 7 8 8 9 13 19 26 33 39 41 40 38 36 32 29 26 20 15 7 3 3 4 1 7 8 9 11 10
10 9 7 7 9 8 6 6 4 3 2 2 3 4 7 11 14 14 14 15 17 17 16 16 17 18 15 15 20 25 31 36 35 36 37 34 31 31 30 29 26 23 17 12 6 2 2 1 5 7 8 8 10 14
8 7 5 4 6 7 6 4 5 3 3 5 7 9 13 15 15 14 14 14 15 16 17 20 12 16 17 19 27 31 34 35 35 32 29 27 29 29 27 24 21 17 12 8 3 0 2 4 7 10 13 12 14 17
6 4 2 1 4 7 5 3 3 4 5 9 13 11 14 17 18 18 17 16 16 18 20 25 25 25 26 26 27 30 30 30 32 31 26 25 25 24 22 19 15 11 8 4 1 3 6 8 12 14 15 16 17 17
3 3 4 2 3 6 5 6 7 5 12 13 17 16 16 17 15 15 15 16 18 21 22 23 23 23 23 24 26 27 25 27 27 28 30 29 24 22 17 13 10 7 4 1 4 8 11 13 15 17 17 17 15 15
8 7 6 6 4 5 7 5 9 12 15 15 13 15 18 18 16 12 12 13 16 15 15 16 18 20 19 19 20 22 23 22 22 23 24 25 23 17 12 9 5 3 1 4 6 9 12 14 17 19 18 18 18 19
9 10 10 9 5 5 6 6 9 11 11 13 16 18 19 19 13 11 9 11 10 10 12 14 15 16 14 15 16 17 19 19 20 21 20 19 16 11 8 5 2 3 6 9 12 14 15 17 19 19 20 20 21 23
4 6 7 4 6 4 5 7 8 9 11 14 17 19 17 13 12 13 10 8 8 10 11 12 11 11 13 14 15 16 17 17 17 17 16 13 10 6 4 3 6 9 13 15 17 18 21 22 23 22 22 24 27 31
3 2 2 3 3 4 7 9 10 10 12 17 18 12 11 14 14 8 6 11 13 11 10 10 11 12 11 10 11 13 15 15 14 12 8 6 4 4 6 10 13 17 20 21 23 26 28 29 29 30 31 32 33 34
2 2 2 2 2 5 8 7 8 13 16 16 8 11 14 12 4 3 9 18 11 10 10 10 10 10 11 10 9 10 11 11 10 6 5 6 7 11 15 18 21 24 26 25 26 27 30 32 32 32 32 32 30 29
7 7 8 7 8 10 10 9 11 13 13 7 9 12 9 5 3 5 16 15 11 11 11 11 11 11 8 8 9 9 9 8 8 7 10 13 16 21 24 26 28 31 32 31 31 31 31 32 33 32 32 34 33 31
10 12 10 11 10 9 10 11 12 9 6 8 12 11 7 5 10 16 14 10 10 11 12 12 11 9 7 7 8 8 7 9 10 12 17 20 24 27 29 30 32 33 35 36 35 36 35 34 33 32 31 31 31 29
9 8 8 7 8 9 9 10 8 7 10 13 14 15 17 14 11 8 6 7 8 10 11 12 11 7 6 7 7 7 9 12 15 17 19 22 24 26 27 31 34 36 36 35 34 31 30 29 28 28 27 26 26 25
9 8 8 6 6 7 6 7 7 10 11 12 13 13 10 5 2 1 3 5 8 10 10 9 8 5 5 6 7 8 9 11 14 20 22 23 27 32 33 31 29 28 27 26 27 29 29 27 26 24 23 22 21 20
9 8 8 8 8 7 8 8 9 9 10 10 10 9 5 1 1 2 3 5 8 9 10 10 7 5 5 7 7 8 11 16 19 21 25 28 28 28 28 28 27 27 27 25 24 24 24 23 21 19 19 18 18 17
6 8 9 9 9 10 10 10 8 8 9 7 6 4 2 1 1 1 2 5 7 9 9 8 5 5 7 8 8 7 11 19 23 26 23 22 22 24 25 24 24 23 23 23 22 22 20 18 17 17 15 15 15 14
7 7 7 7 7 7 6 6 5 5 5 5 4 3 1 1 1 1 2 4 6 7 6 6 4 5 7 8 8 11 16 18 23 24 22 22 22 24 24 22 21 22 20 19 19 19 18 16 15 15 14 13 12 11
Wind_Direction
197 201 217 217 215 210 216 199 172 161 169 182 176 187 195 206 215 231 230 232 238 241 246 251 250 250 250 248 243 241 253 256 252 235 233 233 242 228 249 246 245 250 235 228 236 239 256 255 239 243 253 243 251 253
227 223 225 211 194 191 181 170 163 171 169 177 185 195 194 218 236 242 245 247 250 246 242 245 244 248 252 254 253 250 248 251 233 213 223 226 237 229 237 238 209 232 216 228 227 228 191 185 276 250 205 219 234 245
204 195 184 182 185 187 184 160 162 169 180 193 182 192 221 233 244 260 263 264 258 256 258 256 243 246 248 250 254 255 248 247 242 247 247 255 263 264 268 268 262 250 236 260 264 251 247 240 260 263 260 257 267 276
177 181 172 172 165 159 155 158 175 182 173 185 206 231 239 249 261 268 267 265 258 247 241 236 209 227 248 242 230 233 251 268 263 261 261 259 266 272 274 276 273 271 274 266 264 262 265 255 254 260 251 250 262 271
180 166 157 160 167 167 165 182 187 197 195 220 230 237 249 261 263 263 267 267 256 239 181 225 250 258 253 237 238 261 270 263 265 261 259 267 273 273 276 279 277 286 284 281 282 284 276 271 254 249 255 251 253 259
175 172 173 169 173 178 183 197 187 217 229 228 234 242 256 255 254 253 229 245 198 128 122 172 214 230 256 259 259 271 276 268 260 262 265 270 279 279 277 284 302 302 299 297 291 286 278 278 276 258 252 247 245 255
181 181 187 196 196 184 177 208 229 223 224 231 237 232 224 226 218 193 179 142 141 97 98 159 142 141 280 294 293 287 275 270 265 266 269 276 280 282 279 278 310 308 298 295 292 287 281 277 274 268 265 261 255 250
196 183 175 166 160 178 212 220 222 226 227 212 197 192 194 193 168 166 160 155 106 8 73 137 171 284 319 335 330 326 307 293 286 285 279 280 284 282 273 292 301 313 308 306 305 294 284 282 278 271 266 263 258 252
146 143 164 193 212 215 216 213 211 203 186 176 177 177 154 146 158 174 185 231 272 267 277 266 318 334 341 339 334 334 323 305 291 282 291 287 276 251 285 301 319 324 328 317 309 299 293 284 279 273 267 260 256 248
179 190 198 205 206 201 198 192 186 173 164 162 167 156 152 157 168 211 277 284 284 277 219 76 76 340 327 333 335 329 301 301 284 300 292 274 279 306 266 333 343 335 326 319 311 304 298 289 284 278 270 263 257 251
189 194 196 193 189 181 167 161 163 167 170 174 173 177 180 185 237 274 271 242 211 151 160 151 338 328 329 332 328 314 288 278 273 284 256 264 283 350 330 329 322 323 324 314 307 301 295 292 291 285 273 260 250 247
183 174 165 165 165 152 157 169 166 171 172 178 189 196 203 227 246 222 236 212 184 201 187 298 321 330 334 334 328 304 278 257 256 279 263 245 205 309 319 319 320 321 316 314 310 301 295 293 291 286 275 250 239 239
144 149 158 167 163 156 170 174 171 166 170 176 184 197 198 206 211 217 206 204 201 211 244 306 314 327 334 331 301 265 255 247 282 243 248 234 262 318 322 323 315 320 321 322 315 309 308 307 303 290 253 229 227 216
164 167 170 173 175 175 176 177 178 177 171 181 175 189 196 186 193 232 230 251 235 255 286 293 302 320 326 322 270 258 257 279 254 249 250 296 323 322 318 322 326 328 331 330 328 331 339 342 5 7 192 191 192 191
152 151 152 155 160 166 171 179 182 185 191 177 189 192 190 169 230 240 228 251 279 281 275 285 297 307 312 273 249 257 248 246 247 270 310 318 319 320 323 327 330 331 336 336 336 340 17 36 51 63 94 142 156 175
143 149 152 154 150 143 148 161 158 158 176 207 217 160 162 267 272 271 265 273 285 279 277 289 299 296 291 241 242 247 247 245 266 300 307 311 317 321 323 328 331 332 337 339 334 325 12 46 68 94 108 126 145 148
146 151 150 151 153 166 167 163 171 192 194 190 144 302 287 288 287 282 267 279 277 281 287 287 273 264 268 254 238 246 255 272 284 295 306 315 319 321 323 327 331 334 340 345 342 294 317 350 50 137 126 138 158 141
137 132 142 162 177 178 174 184 207 248 255 307 293 293 303 311 310 304 295 280 276 280 282 278 276 261 249 256 262 272 280 288 294 302 312 318 318 320 324 327 331 334 343 349 350 317 293 28 101 133 152 167 165 155
145 146 141 157 178 182 189 223 240 267 311 325 327 308 303 307 305 297 295 287 274 274 273 275 270 267 279 292 294 295 297 297 303 312 318 322 323 323 326 327 328 335 343 353 360 66 124 142 128 125 134 146 149 153
160 170 157 54 201 199 206 240 252 268 303 317 327 325 315 307 300 292 285 281 277 271 266 265 283 290 289 293 295 295 298 306 309 314 321 325 325 326 327 327 334 344 346 0 112 128 121 140 152 148 146 144 143 149
195 218 230 258 282 225 238 261 283 290 316 316 322 321 320 320 308 295 283 274 270 268 279 288 291 291 288 288 293 298 306 307 312 316 320 326 331 332 331 331 339 345 354 35 133 129 128 132 149 155 152 154 159 162
227 233 241 249 288 238 258 286 294 303 306 315 323 322 324 329 319 307 293 287 283 291 288 284 283 283 287 291 295 298 301 308 312 312 315 319 324 328 327 332 334 337 91 120 128 129 134 141 147 153 153 151 152 151
256 254 249 237 245 230 256 287 302 313 313 321 328 327 327 329 328 324 312 310 309 299 292 293 297 300 305 303 301 305 312 314 313 314 319 321 325 330 339 341 360 114 119 115 121 125 133 138 139 143 145 148 148 143
150 138 155 183 215 235 267 302 322 321 324 333 329 324 323 327 326 325 318 332 330 321 316 315 315 310 308 311 315 315 313 314 319 319 322 328 334 345 8 70 112 117 118 115 115 122 129 127 127 132 136 139 138 136
134 180 221 230 253 274 292 306 322 319 328 331 330 332 329 326 323 318 341 347 332 335 334 332 329 328 330 327 318 318 322 328 328 327 334 349 19 73 103 117 117 119 118 117 117 117 120 122 125 129 132 134 135 135
236 248 230 259 289 315 317 315 311 319 326 331 322 330 329 325 314 313 345 348 345 346 345 344 341 337 330 333 335 333 336 339 347 16 44 62 97 113 118 119 119 116 110 112 116 120 122 125 127 129 130 130 133 135
236 252 265 273 294 302 301 301 302 315 323 323 328 334 331 311 311 337 340 344 348 350 351 351 350 349 347 345 348 356 3 12 30 74 94 101 114 119 119 120 119 114 110 110 112 115 118 123 126 126 125 118 111 113
256 273 280 281 290 293 287 294 306 316 321 326 328 325 315 296 300 317 331 342 350 353 354 357 358 358 5 9 15 25 43 61 78 104 112 118 121 122 124 124 121 121 123 119 115 111 109 110 112 115 118 122 122 120
274 284 289 280 272 281 291 302 303 303 314 322 323 322 314 304 298 310 332 350 354 357 1 357 359 12 28 36 48 60 83 91 98 108 119 124 125 127 127 126 124 120 115 116 118 121 121 122 121 121 122 123 122 122
268 265 270 272 272 278 301 306 299 306 316 323 326 329 329 323 310 17 18 5 2 4 4 5 12 39 53 66 75 82 95 120 131 131 132 131 129 124 114 110 109 111 115 118 120 121 122 123 123 123 124 123 120 121
260 262 266 272 274 281 289 302 309 306 315 324 330 332 329 11 111 74 26 4 3 6 10 11 25 66 79 93 94 104 131 130 125 129 129 122 116 117 119 120 121 123 124 125 125 124 123 125 126 127 126 124 121 119
265 265 268 270 273 279 288 295 294 298 309 316 328 339 6 75 93 57 6 359 2 8 12 18 47 90 101 103 107 126 136 132 121 119 112 116 120 123 125 127 127 124 125 127 127 126 124 127 127 125 124 124 122 120
268 270 272 276 285 292 285 282 292 309 313 315 304 304 301 306 323 321 331 342 354 6 17 26 78 117 121 117 120 139 153 145 132 127 130 131 132 132 131 131 127 125 127 130 129 126 126 126 127 125 123 121 117 114
Height
2936 2940 2944 2948 2950 2952 2957 2962 2966 2970 2977 2981 2986 2989 2993 2997 2999 3001 3000 3002 3003 3004 3005 3006 3007 3007 3009 3009 3010 3011 3013 3013 3015 3016 3017 3016 3015 3015 3014 3014 3017 3019 3017 3016 3018 3019 3015 3011 3014 3015 3013 3010 3010 3010
2936 2939 2942 2946 2949 2953 2958 2961 2965 2971 2975 2981 2984 2988 2990 2995 2995 2997 2997 2997 2998 3000 3000 3001 3001 3003 3004 3005 3006 3006 3008 3008 3009 3010 3011 3012 3010 3009 3008 3009 3011 3014 3011 3010 3012 3006 3005 3005 3006 3006 3008 3008 3007 3004
2933 2936 2942 2946 2950 2954 2959 2963 2967 2971 2977 2980 2982 2986 2989 2990 2991 2992 2992 2993 2993 2995 2995 2997 2998 2999 2999 2998 3000 3004 3004 3005 3006 3005 3006 3006 3006 3006 3005 3005 3006 3007 3006 3001 3001 2999 2999 2999 3001 3002 3003 3002 3000 2998
2934 2939 2943 2948 2952 2957 2961 2965 2969 2973 2976 2979 2981 2983 2985 2986 2986 2988 2987 2989 2990 2991 2992 2994 2993 2995 2996 2995 2995 2999 3000 3000 3001 3001 2999 2999 3000 3000 2997 2998 2997 2999 2997 2992 2987 2987 2990 2990 2993 2992 2993 2993 2991 2990
2935 2939 2944 2950 2954 2958 2964 2966 2968 2972 2973 2976 2978 2980 2981 2982 2983 2983 2983 2985 2986 2990 2990 2990 2990 2990 2992 2992 2994 2995 2995 2995 2994 2994 2993 2992 2992 2994 2990 2988 2985 2988 2985 2983 2976 2980 2976 2971 2974 2976 2975 2976 2977 2976
2935 2940 2946 2950 2954 2958 2962 2966 2968 2970 2972 2974 2976 2977 2977 2979 2979 2979 2982 2983 2983 2985 2988 2987 2988 2988 2989 2990 2991 2991 2990 2989 2988 2987 2986 2985 2987 2987 2981 2976 2972 2975 2974 2972 2967 2966 2963 2960 2960 2961 2958 2959 2962 2961
2937 2942 2947 2951 2954 2958 2962 2965 2966 2968 2970 2972 2972 2973 2975 2976 2977 2979 2981 2982 2982 2984 2985 2985 2985 2987 2988 2988 2988 2987 2985 2983 2982 2980 2978 2978 2978 2980 2973 2966 2965 2968 2964 2961 2959 2955 2949 2949 2944 2946 2945 2946 2947 2947
2938 2942 2946 2951 2955 2958 2961 2963 2965 2966 2968 2969 2971 2973 2974 2975 2977 2978 2979 2980 2981 2982 2983 2984 2985 2986 2987 2985 2983 2981 2978 2977 2974 2972 2971 2970 2970 2968 2962 2961 2961 2959 2956 2952 2948 2943 2937 2933 2930 2929 2930 2930 2930 2932
2939 2943 2948 2952 2954 2957 2958 2960 2963 2964 2966 2968 2970 2972 2974 2975 2976 2977 2978 2979 2980 2984 2981 2982 2983 2984 2984 2982 2979 2976 2973 2969 2967 2964 2964 2964 2960 2959 2959 2958 2957 2952 2944 2938 2933 2927 2923 2918 2914 2913 2913 2914 2915 2918
2941 2944 2947 2950 2952 2955 2957 2959 2962 2964 2966 2968 2970 2972 2973 2975 2976 2978 2978 2978 2978 2978 2978 2980 2981 2982 2982 2979 2976 2973 2968 2966 2962 2961 2960 2956 2953 2954 2954 2951 2944 2939 2934 2928 2918 2911 2907 2903 2900 2898 2898 2900 2902 2906
2941 2944 2947 2949 2951 2954 2956 2958 2961 2963 2966 2968 2970 2972 2973 2974 2976 2976 2976 2977 2977 2978 2979 2980 2980 2980 2978 2976 2973 2971 2968 2965 2961 2960 2958 2954 2951 2951 2947 2943 2938 2931 2924 2917 2909 2901 2895 2889 2885 2884 2885 2886 2889 2892
2941 2943 2946 2948 2951 2954 2956 2959 2961 2964 2966 2968 2970 2971 2973 2974 2975 2976 2975 2976 2976 2977 2978 2978 2978 2977 2976 2973 2970 2968 2965 2963 2958 2957 2955 2950 2948 2945 2941 2935 2928 2922 2914 2906 2899 2890 2885 2880 2876 2873 2873 2875 2878 2882
2941 2944 2946 2949 2952 2955 2957 2959 2961 2964 2966 2968 2970 2971 2972 2973 2974 2974 2974 2975 2975 2975 2976 2976 2976 2975 2972 2971 2967 2965 2962 2958 2957 2953 2949 2945 2943 2939 2932 2926 2920 2914 2904 2896 2889 2883 2878 2874 2868 2865 2866 2869 2873 2877
2942 2945 2947 2950 2952 2954 2957 2959 2961 2964 2966 2968 2969 2970 2971 2971 2972 2973 2973 2974 2974 2974 2974 2974 2973 2972 2970 2967 2965 2962 2959 2956 2952 2948 2944 2941 2938 2933 2927 2920 2911 2903 2896 2889 2882 2878 2875 2871 2866 2865 2867 2869 2872 2877
2944 2946 2948 2951 2952 2955 2957 2959 2961 2963 2965 2967 2968 2969 2969 2971 2971 2971 2972 2972 2972 2972 2971 2970 2969 2969 2966 2964 2961 2959 2955 2951 2947 2943 2940 2936 2933 2926 2918 2911 2904 2897 2890 2884 2880 2878 2876 2873 2870 2869 2870 2872 2874 2878
2946 2948 2950 2951 2953 2955 2957 2959 2961 2963 2965 2967 2967 2968 2969 2970 2970 2970 2970 2969 2969 2968 2968 2967 2965 2963 2960 2959 2957 2954 2951 2946 2943 2939 2936 2932 2926 2919 2912 2906 2899 2893 2887 2882 2879 2878 2877 2876 2875 2874 2875 2877 2879 2881
2948 2949 2951 2953 2955 2956 2958 2961 2962 2963 2965 2965 2966 2967 2967 2967 2967 2966 2966 2965 2964 2964 2963 2963 2963 2961 2958 2954 2951 2948 2946 2943 2939 2936 2933 2928 2919 2912 2906 2901 2895 2890 2885 2881 2879 2878 2877 2877 2877 2878 2879 2881 2883 2886
2949 2951 2952 2954 2955 2957 2959 2960 2962 2963 2963 2964 2965 2965 2964 2964 2962 2961 2960 2960 2959 2958 2958 2958 2957 2954 2954 2948 2946 2945 2942 2938 2935 2930 2926 2921 2915 2908 2902 2896 2892 2887 2884 2881 2878 2878 2877 2877 2878 2879 2881 2883 2886 2889
2951 2952 2953 2955 2956 2958 2959 2961 2961 2961 2962 2962 2962 2962 2960 2959 2958 2956 2955 2954 2954 2953 2953 2951 2950 2945 2944 2943 2940 2938 2935 2930 2925 2922 2919 2914 2908 2902 2897 2893 2889 2885 2883 2880 2879 2878 2878 2878 2880 2882 2884 2887 2890 2893
2952 2953 2954 2955 2956 2957 2958 2960 2960 2960 2960 2960 2959 2957 2956 2954 2952 2951 2949 2948 2948 2947 2946 2943 2941 2941 2939 2937 2934 2930 2927 2924 2919 2914 2912 2909 2904 2898 2893 2889 2887 2884 2882 2880 2879 2878 2878 2879 2882 2885 2888 2891 2894 2897
2952 2953 2954 2955 2955 2956 2958 2958 2958 2958 2957 2956 2955 2953 2952 2949 2946 2944 2942 2942 2941 2939 2938 2937 2936 2934 2932 2930 2927 2924 2922 2918 2915 2910 2904 2899 2898 2894 2890 2887 2885 2883 2881 2880 2879 2879 2879 2881 2884 2887 2890 2894 2897 2899
2950 2951 2952 2953 2954 2955 2956 2956 2957 2956 2955 2953 2952 2949 2947 2944 2941 2939 2937 2936 2935 2934 2932 2931 2929 2927 2926 2925 2923 2920 2917 2914 2910 2907 2903 2898 2894 2891 2888 2885 2884 2882 2881 2880 2880 2881 2881 2884 2886 2890 2893 2896 2899 2903
2948 2949 2950 2952 2953 2954 2956 2954 2954 2952 2952 2950 2948 2945 2942 2940 2938 2936 2934 2932 2931 2930 2928 2927 2925 2923 2921 2920 2918 2915 2911 2909 2906 2902 2899 2895 2891 2888 2886 2885 2884 2883 2882 2882 2882 2883 2885 2887 2889 2893 2896 2900 2903 2907
2946 2947 2949 2951 2952 2952 2952 2952 2951 2950 2949 2948 2945 2942 2939 2937 2935 2933 2931 2930 2929 2927 2925 2923 2922 2920 2919 2916 2913 2911 2908 2906 2902 2898 2895 2892 2889 2887 2886 2886 2885 2885 2884 2884 2885 2886 2889 2891 2894 2898 2902 2905 2908 2912
2950 2951 2951 2950 2950 2951 2950 2950 2949 2948 2947 2945 2942 2940 2938 2935 2933 2932 2931 2929 2927 2925 2923 2921 2919 2917 2915 2913 2911 2909 2905 2902 2899 2896 2893 2891 2889 2888 2888 2888 2888 2888 2889 2890 2891 2893 2895 2898 2901 2905 2909 2913 2916 2919
2949 2949 2950 2949 2949 2950 2949 2948 2947 2946 2945 2943 2940 2939 2936 2934 2932 2931 2930 2928 2925 2923 2922 2920 2918 2916 2913 2911 2909 2907 2904 2901 2898 2895 2893 2892 2891 2891 2892 2893 2894 2895 2895 2897 2899 2901 2903 2906 2910 2914 2917 2921 2925 2929
2947 2947 2947 2948 2948 2947 2946 2946 2945 2944 2943 2941 2940 2938 2936 2934 2932 2932 2929 2927 2925 2923 2921 2919 2917 2914 2913 2911 2909 2906 2904 2902 2899 2897 2896 2896 2896 2896 2898 2899 2901 2901 2903 2906 2908 2912 2914 2917 2920 2924 2927 2929 2933 2939
2945 2945 2945 2946 2945 2945 2944 2943 2943 2942 2941 2940 2939 2937 2935 2934 2933 2931 2928 2927 2925 2923 2921 2919 2917 2914 2913 2911 2909 2908 2906 2904 2903 2901 2901 2902 2903 2904 2905 2906 2906 2909 2912 2915 2919 2921 2924 2928 2931 2934 2937 2940 2942 2945
2942 2943 2943 2942 2942 2942 2942 2941 2941 2940 2940 2938 2936 2934 2932 2930 2929 2928 2927 2926 2925 2923 2921 2919 2917 2915 2914 2913 2912 2911 2910 2909 2909 2909 2909 2909 2911 2913 2913 2915 2916 2918 2921 2924 2926 2931 2935 2938 2941 2943 2946 2948 2950 2952
2940 2940 2940 2940 2940 2940 2940 2940 2939 2938 2937 2936 2934 2932 2929 2928 2927 2927 2927 2927 2926 2924 2922 2920 2918 2917 2916 2915 2915 2915 2914 2914 2915 2916 2917 2918 2918 2919 2921 2924 2927 2930 2932 2935 2938 2939 2942 2946 2948 2950 2953 2955 2956 2959
2937 2938 2938 2938 2938 2938 2938 2937 2937 2936 2935 2933 2932 2930 2929 2928 2928 2928 2928 2927 2926 2925 2923 2921 2920 2919 2919 2918 2918 2919 2919 2919 2920 2921 2922 2924 2926 2928 2930 2933 2935 2938 2940 2943 2946 2948 2950 2952 2954 2956 2958 2960 2961 2963
2935 2935 2935 2935 2936 2936 2935 2935 2934 2934 2933 2932 2931 2930 2929 2929 2929 2929 2929 2928 2927 2925 2924 2923 2922 2921 2921 2921 2922 2923 2923 2924 2925 2927 2929 2932 2934 2936 2939 2941 2943 2945 2947 2949 2951 2953 2955 2957 2959 2961 2962 2964 2965 2967
2933 2933 2933 2933 2933 2933 2933 2933 2932 2932 2931 2930 2930 2929 2929 2929 2929 2930 2929 2928 2928 2926 2925 2924 2923 2923 2924 2924 2925 2926 2928 2929 2932 2934 2936 2938 2941 2943 2945 2947 2949 2951 2953 2955 2957 2958 2960 2962 2964 2965 2966 2968 2969 2970